Zurück zum Katalog

STARLINK-6271

AktivKommunikationVLEO
NORAD 56397·PAYLOAD·🇺🇸 United States

Gestartet May 4, 2023 von Cape Canaveral Space Force Station

Loading…

Nächste Überflüge (nächste 24 Stunden)

TLE

AktuellSource: CelesTrak SupGP

Epoche: Sep 14, 2026, 21:38 UTC

1 56397C 23061Z   26257.90187500 -.00008660  00000+0 -31367-3 0  2575
2 56397  42.9995 198.7768 0000707 234.6090 301.9877 15.27582382    13

Verfolge STARLINK-6271 in Echtzeit mit AllMySat

Download on the App Store